Showing default

KUIPER-00192, 68575

Orbit data source: Space-Track

KUIPER-00192, 68575 is a payload satellite owned by Kuiper Systems (US) in LEO that was launched on Sat, 04 Apr 2026 UTC via an ATLAS V 551 launch vehicle from the Air Force Eastern Test Range (AFETR). Payload-class satellites include a variety of spacecraft equipped with specific instruments for various scientific and technological missions. These include communications satellites like Starlink; space stations such as the ISS; scientific satellites like the Hubble; Earth observation satellites from companies like Planet Labs, Umbra, and HawkEye 360; GPS; miniature CubeSats for education and research; and military/defense satellites.

Loading next visibility...
Identifier
68575, 2026-072C
Orbit
LEO
Country
Flag of USUS
Related business
Manufacturer
Kuiper Systems
Mission
Operational spacecraft
Bus & Motor
KUIPER, Unknown motor
Mass
~490 kg wet, ~490 kg dry
Launch date (UTC)
2026-04-04 (1 month ago)
Launch vehicle
ATLAS V 551
Launch site
Air Force Eastern Test Range (AFETR)
Object type
Payload
Rocket body
Debris
Shape & HBR
Unknown shape, 3.4 m
Radar Cross Section
RCS unknown

Expand to show TLE details & history
Last TLE update: 5 hours ago

TLE from 5 hours ago
0 KUIPER-00192
1 68575U 26072C   26138.83335647 -.00018606  00000-0 -18869-2 0  9994
2 68575  51.8981 323.1619 0005173 318.7695 184.0028 14.90058287  3218
Epoch: 2026-05-18T20:00Z
TLE epoch observation values (Epoch: 2026-05-18T20:00:01.999Z)
Latitude
28.5192°
Longitude
-58.43597°
Altitude
602.684 km
Speed
7.56 km/s
True Right ascension
07h 52m 21s
True Declination
28° 22' 19"
Sunlit
Object was in daylight at epoch
Visualization orbit readout
Latitude
Unknown
Longitude
Unknown
Altitude
Unknown
Speed
Unknown
Apparent Right ascension
Unknown
Apparent Declination
Unknown
Sunlit
N/A
Visualization observer readout
Local Sidereal Time
09:57:55
Azimuth
Unknown
Elevation
Unknown
Doppler factor
Unknown
Orbital elements
Apogee altitude
601.816 km
Perigee altitude
594.598 km
Semi-major axis
6,976.344 km
Eccentricity
0.00052
Inclination
51.8981°
RAAN
323.1619°
Arg. of periapsis
318.7695°
True anomaly
183.99866°
Mean anomaly
184.0028°
Eccentric anomaly
184.00073°
Mean motion
3.72479 °/min
Orbital period
96.65 mins
BSTAR
-0.0018869
Loading maneuver chart data...
Computing Atmospheric mass density...
Loading historical data...
Loading historical data...
Loading historical data...
Loading historical data...
Loading historical data...
Loading historical data...
Loading historical data...

Documentation

Showing up to 5 results
|